This is the latest recevied weather packets stored in our database for station/object DB0LS-15. If no packets are shown the sender has not sent any weather packets the latest 10 day(s).
| Time | Temp. | Humidity | Pressure | Rain* | Wind** | Luminosity | Snow |
|---|---|---|---|---|---|---|---|
| 1777795538 | 22.78° C | 36% | 996.8 hPa | 0 mm | - | - | - |
| 1777794933 | 23.33° C | 36% | 996.7 hPa | 0 mm | - | - | - |
| 1777794329 | 22.22° C | 38% | 996.8 hPa | 0 mm | - | - | - |
| 1777793725 | 22.22° C | 40% | 996.8 hPa | 0 mm | - | - | - |
| 1777793122 | 21.11° C | 43% | 996.8 hPa | 0 mm | - | - | - |
| 1777792518 | 20.56° C | 44% | 996.9 hPa | 0 mm | - | - | - |
| 1777791974 | 20° C | 46% | 996.9 hPa | 0 mm | - | - | - |
| 1777791370 | 19.44° C | 46% | 996.8 hPa | 0 mm | - | - | - |
| 1777790767 | 18.33° C | 47% | 996.9 hPa | 0 mm | - | - | - |
| 1777790157 | 18.33° C | 46% | 996.9 hPa | 0 mm | - | - | - |
| 1777789553 | 17.78° C | 46% | 996.9 hPa | 0 mm | - | - | - |
| 1777788949 | 17.22° C | 47% | 996.9 hPa | 0 mm | - | - | - |
| 1777788345 | 17.22° C | 48% | 997 hPa | 0 mm | - | - | - |
| 1777787741 | 16.67° C | 49% | 996.9 hPa | 0 mm | - | - | - |
| 1777787137 | 16.11° C | 50% | 997 hPa | 0 mm | - | - | - |
| 1777786534 | 16.11° C | 50% | 997 hPa | 0 mm | - | - | - |
| 1777785930 | 15.56° C | 50% | 996.8 hPa | 0 mm | - | - | - |
| 1777785326 | 15° C | 50% | 996.9 hPa | 0 mm | - | - | - |
| 1777784722 | 15° C | 51% | 996.8 hPa | 0 mm | - | - | - |
| 1777784118 | 14.44° C | 51% | 996.8 hPa | 0 mm | - | - | - |
| 1777783574 | 14.44° C | 50% | 996.9 hPa | 0 mm | - | - | - |
| 1777782971 | 14.44° C | 51% | 996.8 hPa | 0 mm | - | - | - |
| 1777782367 | 14.44° C | 51% | 996.8 hPa | 0 mm | - | - | - |
| 1777781757 | 14.44° C | 50% | 996.7 hPa | 0 mm | - | - | - |
| 1777781153 | 14.44° C | 51% | 996.7 hPa | 0 mm | - | - | - |
* Rain latest hour (hover to see other rain measurements)
** Current wind speed in m/s (hover to see current wind gust speed)